QPF
0.00 0.00 0.00 0.00 0.00 0.00 0.00 0.00 0.00 0.00 0.00 0.00 0.00 0.00 0.00 0.00 0.00 0.00 0.00 0.00 0.00 0.00 0.00 0.00 0.00 0.00 0.00 0.00 0.00 0.00 0.00 0.00 0.00 0.00 0.00 -0.00 -0.00 0.00 0.00 0.00 0.00 0.00 0.00 0.00 0.00 0.00 0.00 0.00 0.00 0.00 0.00 0.00 0.00 0.00 0.00 0.00 0.00 0.00 0.00 0.00 0.00 0.00 0.00
0.00 0.00 0.00 0.00 0.00 0.00 0.00 0.00 0.00 0.00 0.00 0.00 0.00 0.00 0.00 0.00 -0.00 0.00 0.00 0.00 0.00 0.00 0.01 0.00 0.00 0.00 0.00 0.00 0.00 0.00 0.00 0.00 0.00 0.00 0.00 0.00 -0.00 0.00 0.00 0.00 0.00 0.00 0.00 0.00 0.00 0.00 0.00 0.00 0.00 0.00 0.00 0.00 0.00 0.00 0.00 0.00 0.00 0.00 0.00 0.00 0.00 0.00 0.00
0.00 0.00 0.00 0.00 0.00 0.00 0.00 0.00 0.00 0.00 0.00 0.00 0.00 0.00 0.00 -0.00 0.00 0.00 0.00 0.00 0.00 0.00 -0.00 0.00 0.00 0.00 0.00 0.00 0.00 0.00 0.00 0.00 0.00 0.00 0.00 0.00 0.00 0.00 0.00 0.00 0.00 0.00 0.00 0.00 0.00 0.00 0.00 0.00 0.00 0.00 0.00 0.00 0.00 0.00 0.00 0.00 0.00 0.00 0.00 0.00 0.00 0.00 0.00
0.00 0.00 0.00 0.00 0.00 0.00 0.00 0.00 0.00 0.00 0.00 0.00 0.00 0.00 0.00 0.00 0.00 0.00 0.00 0.00 0.00 0.00 0.00 0.00 0.00 0.00 0.00 0.00 0.00 0.00 0.00 0.00 0.00 0.00 0.00 0.00 0.00 0.00 0.00 0.00 -0.00 0.00 0.00 0.00 0.00 0.00 0.00 0.00 0.00 0.00 0.00 0.00 0.00 0.00 0.00 0.00 0.00 0.00 0.00 0.00 0.00 0.00 0.00
0.00 0.00 0.00 0.00 0.00 0.00 0.00 0.00 0.00 0.00 0.00 0.00 0.00 0.00 0.00 0.00 0.00 0.00 0.00 0.00 0.00 0.00 0.00 0.00 0.00 0.00 0.00 0.00 0.00 0.00 0.00 0.00 0.00 0.00 0.00 0.00 -0.00 -0.00 0.00 0.00 0.00 0.00 0.00 0.00 0.00 0.00 0.00 0.00 0.00 0.00 0.00 0.00 0.00 0.00 0.00 0.00 0.00 0.00 0.00 0.00 0.00 0.00 0.00
0.00 0.00 0.00 0.00 0.00 0.00 0.00 0.00 0.00 0.00 0.00 0.00 0.00 -0.00 0.00 0.00 0.00 0.00 0.00 0.00 0.00 0.00 0.00 0.00 0.00 0.00 0.00 0.00 0.00 0.00 0.00 0.00 0.00 0.00 0.00 0.00 0.00 0.00 -0.00 0.00 0.01 0.00 0.00 0.00 0.00 0.00 0.00 0.00 0.00 0.00 0.00 0.00 0.00 0.00 0.00 0.00 0.00 0.00 0.00 0.00 0.00 0.00 -0.00
0.00 0.00 0.00 0.00 0.00 0.00 0.00 0.00 0.00 0.00 0.00 0.00 -0.00 0.00 0.00 0.00 0.00 0.00 0.00 0.00 0.00 0.00 0.00 0.00 0.00 0.00 0.00 0.00 0.00 0.00 0.00 0.00 0.00 0.00 0.00 0.00 0.00 0.00 0.00 -0.00 0.00 0.00 0.00 0.01 0.00 0.00 0.00 0.00 0.00 0.00 0.00 0.00 0.00 0.00 0.00 0.00 0.00 0.00 0.00 0.00 0.00 0.00 0.00
0.00 0.00 0.00 0.00 0.00 0.00 0.00 0.00 0.00 0.00 0.00 0.00 0.00 0.00 0.00 0.00 0.00 0.00 -0.00 0.00 0.00 0.00 0.00 0.00 0.00 0.00 0.00 0.00 0.00 0.00 0.00 0.00 0.00 0.00 0.00 0.00 0.00 0.00 0.00 0.00 -0.00 0.01 0.00 0.01 0.00 0.00 0.00 0.00 0.00 0.00 0.00 0.00 0.00 0.00 0.00 0.00 0.00 0.00 0.00 0.00 0.00 0.00 -0.00
0.00 0.00 0.00 0.00 0.00 0.00 0.00 0.00 0.00 0.00 0.00 0.00 0.00 0.00 0.00 0.00 0.00 0.00 -0.00 0.00 0.00 0.00 0.00 0.00 0.00 0.00 0.00 0.00 0.00 0.00 0.00 0.00 0.00 0.00 0.00 0.00 0.00 0.00 0.00 0.00 0.00 0.00 0.00 0.00 0.00 0.00 0.00 0.00 0.00 0.00 0.00 0.00 0.00 0.00 0.00 0.00 0.00 0.00 0.00 0.00 0.00 -0.00 0.00
0.00 0.00 0.00 0.00 0.00 0.00 0.00 0.00 0.00 0.00 0.00 0.00 0.00 0.00 0.00 0.00 0.00 0.00 -0.00 0.00 0.00 0.00 0.00 0.00 0.00 0.00 0.00 0.00 0.00 0.00 0.00 0.00 0.00 0.00 0.00 0.00 0.00 0.00 0.00 0.00 0.00 0.00 0.00 0.00 0.00 0.00 0.00 0.00 0.00 0.00 0.00 0.00 0.00 0.00 0.00 0.00 0.00 0.00 0.00 0.00 0.00 0.00 0.00
0.00 0.00 0.00 0.00 0.00 0.00 0.00 0.00 0.00 0.00 0.00 0.00 0.00 0.00 0.00 0.00 0.00 0.00 0.00 0.00 0.00 0.00 0.00 0.00 0.00 0.00 0.00 0.00 0.00 0.00 0.00 0.00 0.00 0.00 0.00 0.00 0.00 0.00 0.00 0.00 0.00 0.00 0.00 0.00 0.00 0.00 0.00 0.00 0.00 0.00 0.00 0.00 0.00 0.00 0.00 0.00 0.00 0.00 0.00 0.00 0.00 0.00 0.00
0.00 0.00 0.00 -0.00 0.00 0.00 0.00 0.00 0.00 0.00 0.00 0.00 0.00 0.00 0.00 0.00 0.00 0.00 0.00 0.00 0.00 0.00 0.00 0.00 0.00 0.00 0.00 0.00 0.00 0.00 0.00 0.00 0.00 0.00 -0.00 0.00 0.00 0.00 0.00 0.00 0.00 0.00 0.00 0.00 0.00 0.00 0.00 0.00 0.00 0.00 0.00 0.00 0.00 0.00 0.00 0.00 0.00 0.00 0.00 0.00 0.00 0.00 0.00
0.00 0.00 0.00 0.00 0.00 0.00 0.00 0.00 0.00 0.00 0.00 0.00 0.00 0.00 0.00 0.00 0.00 0.00 0.00 0.00 0.00 0.00 0.00 0.00 0.00 0.00 0.00 0.00 0.00 0.00 0.00 0.00 0.00 0.00 0.00 0.00 0.00 0.00 0.00 0.00 0.00 0.00 0.00 0.00 0.00 0.00 0.00 0.00 0.00 0.00 0.00 0.00 0.00 0.00 0.00 0.00 0.00 0.00 0.00 0.00 -0.00 0.00 -0.00
0.00 0.00 0.00 0.00 0.01 0.00 0.00 0.00 0.00 0.00 0.00 0.00 0.00 0.00 0.00 0.00 0.00 0.00 0.00 0.00 0.00 0.00 0.00 0.00 -0.00 0.00 0.00 0.00 0.00 0.00 0.00 0.00 0.00 0.00 0.00 -0.00 0.00 0.00 0.00 0.00 0.00 0.00 0.00 0.00 0.00 0.00 0.00 0.00 0.00 0.00 0.00 0.00 0.00 0.00 0.00 0.00 0.00 0.00 0.00 0.00 0.00 0.00 0.00
0.00 0.00 0.00 0.00 0.00 0.00 0.00 0.00 0.00 0.00 0.00 0.00 0.00 0.00 0.00 0.00 0.00 0.00 0.00 0.00 0.00 0.00 0.00 0.00 0.00 0.00 0.00 0.00 0.00 0.00 0.00 0.00 0.00 0.00 0.00 0.00 0.00 0.00 0.00 0.00 0.00 0.00 0.00 0.00 0.00 0.00 0.00 0.00 0.00 0.00 0.00 0.00 0.00 0.00 0.00 0.00 0.00 0.00 0.00 0.00 0.00 0.00 0.00
-0.00 0.00 0.00 0.00 0.00 0.00 0.00 0.00 0.00 0.00 0.00 0.00 0.00 0.00 0.00 0.00 0.00 0.00 0.00 0.00 0.00 0.00 0.00 0.00 0.00 0.00 0.00 0.00 0.00 0.00 0.00 0.00 0.00 0.00 0.00 0.00 0.00 0.00 0.00 0.00 0.00 0.00 0.00 0.00 0.00 0.00 0.00 0.00 0.00 0.00 0.00 0.00 0.00 0.00 0.00 0.00 0.00 0.00 0.00 0.00 0.00 -0.00 0.00
0.00 -0.00 -0.00 0.00 0.00 0.00 0.01 0.00 0.00 0.00 0.00 0.00 0.00 0.00 0.00 0.00 0.00 0.00 0.00 0.00 0.00 0.00 0.00 0.00 0.00 0.00 0.00 0.00 0.00 0.00 0.00 0.00 0.00 0.00 0.00 0.00 0.00 0.00 0.00 0.00 0.00 0.00 0.00 0.00 0.00 0.00 0.00 0.00 0.00 0.00 0.00 0.00 0.00 0.00 0.00 0.00 0.00 0.00 0.00 0.00 0.00 0.00 -0.00
0.00 -0.00 0.00 -0.00 0.00 0.01 0.00 0.00 0.00 0.00 0.00 0.00 0.00 0.00 0.00 0.00 0.00 0.00 0.00 0.00 0.00 0.00 0.00 0.00 0.00 0.00 0.00 0.00 0.00 0.00 0.00 0.00 0.00 0.00 0.00 0.00 0.00 -0.00 -0.00 0.00 0.00 0.00 0.00 0.00 0.00 0.00 0.00 0.00 0.00 0.00 0.00 0.00 0.00 0.00 0.00 0.00 0.00 0.00 0.00 0.00 0.00 0.00 0.00
0.00 0.00 0.00 0.01 0.05 0.00 0.00 0.00 0.00 0.00 0.00 0.00 0.00 0.00 0.00 0.00 0.00 0.00 0.00 0.00 0.00 0.00 0.00 0.00 0.00 0.00 0.00 0.00 0.00 0.00 0.00 0.00 0.00 0.00 0.00 0.00 0.00 0.00 0.00 0.00 0.00 0.00 0.00 0.00 0.00 0.00 0.00 0.00 0.00 0.00 0.00 0.00 0.00 0.00 0.00 0.00 0.00 0.00 0.00 0.00 0.00 0.00 0.00
0.00 0.00 0.05 0.02 0.00 0.00 0.00 0.00 0.00 0.00 0.00 0.00 0.00 0.00 0.00 0.00 0.00 0.00 0.00 0.00 0.00 0.00 0.00 0.00 0.00 0.00 0.00 0.00 0.00 0.00 0.00 0.00 0.00 0.00 0.00 0.00 0.00 0.00 0.00 0.00 0.00 0.00 0.00 0.00 0.00 0.00 0.00 0.00 0.00 0.00 0.00 0.00 0.00 0.00 0.00 0.00 0.00 0.00 0.00 0.00 0.00 0.00 0.00
0.00 0.00 0.00 0.00 -0.00 0.00 0.00 0.00 0.00 0.00 0.00 0.00 0.00 0.00 0.00 0.00 0.00 0.00 0.00 0.00 0.00 0.00 0.00 0.00 0.00 0.00 0.00 0.00 0.00 0.00 0.00 0.00 0.00 0.00 0.00 0.00 0.00 0.00 0.00 0.00 0.00 0.00 0.00 0.00 0.00 0.00 0.00 0.00 0.00 0.00 0.00 0.00 0.00 0.00 0.00 0.00 0.00 0.00 0.00 0.00 0.00 -0.00 -0.00
0.00 0.00 0.00 0.00 0.08 0.00 -0.00 -0.00 0.00 0.00 0.00 0.00 0.00 0.00 0.00 0.00 0.00 0.00 0.00 0.00 0.00 0.00 0.00 0.00 0.00 0.00 0.00 0.00 0.00 0.00 0.00 0.00 0.00 0.00 0.00 0.00 0.00 0.00 0.00 0.00 0.00 0.00 0.00 0.00 0.00 0.00 0.00 0.00 0.00 0.00 0.00 0.00 0.00 0.00 0.00 0.00 0.00 0.00 0.00 0.00 0.00 0.00 0.00
0.01 0.00 0.01 0.01 0.01 0.00 0.02 0.01 0.00 0.00 0.00 0.00 0.00 0.00 -0.00 0.00 0.00 0.00 0.00 0.00 0.00 0.00 0.00 0.00 0.00 -0.00 0.00 0.00 0.00 0.00 0.00 0.00 0.00 0.00 0.00 0.00 0.00 0.00 0.00 0.00 0.00 0.00 0.00 0.00 0.00 0.00 0.00 0.00 0.00 0.00 0.00 0.00 0.00 0.00 0.00 0.00 0.00 0.00 0.00 0.00 0.00 0.00 0.00
0.00 0.01 0.00 0.00 0.00 0.01 0.02 0.00 0.00 0.00 0.00 0.00 0.00 0.01 -0.00 0.00 0.00 0.00 0.00 0.00 0.00 0.00 -0.00 0.00 0.00 0.00 0.00 0.00 0.00 0.00 0.00 0.00 0.00 0.00 0.00 0.00 0.00 0.00 0.00 0.00 0.00 0.00 0.00 0.00 0.00 0.00 0.00 0.00 0.00 0.00 0.00 0.00 0.00 0.00 0.00 0.00 0.00 0.00 0.00 0.00 0.00 0.00 0.00
0.00 0.00 0.00 0.00 0.00 0.02 -0.00 0.01 0.00 0.00 0.00 0.00 -0.00 -0.00 0.00 0.00 0.00 0.00 0.00 0.00 0.00 0.00 0.00 0.00 0.00 0.00 0.00 0.00 0.00 0.00 0.00 0.00 0.00 0.00 0.00 0.00 0.00 0.00 0.00 0.00 0.00 0.00 0.00 0.00 0.00 0.00 0.00 0.00 0.00 0.00 0.00 0.00 0.00 0.00 0.00 0.00 0.00 0.00 0.00 0.00 0.00 0.00 0.00
0.00 0.00 0.00 0.00 0.02 0.05 0.02 0.01 0.00 0.00 0.00 0.00 0.00 0.04 0.00 -0.00 0.00 0.00 0.00 0.00 -0.00 0.00 0.00 0.00 0.00 0.00 0.00 0.00 0.00 0.00 0.00 0.00 0.00 0.00 0.00 0.00 0.00 0.00 0.00 0.00 0.00 0.00 0.00 0.00 0.00 0.00 0.00 0.00 0.00 0.00 0.00 0.00 0.00 0.00 0.00 0.01 0.01 0.00 0.00 0.00 0.00 0.00 0.00
0.00 0.01 0.01 0.01 0.02 0.05 0.00 0.02 0.00 0.00 0.00 0.00 -0.00 0.00 -0.00 0.00 0.00 0.00 0.00 0.00 0.00 0.00 -0.00 0.00 0.00 0.00 -0.00 0.00 0.00 0.00 0.00 0.01 0.00 0.00 0.00 0.00 0.00 0.00 0.00 0.00 0.00 0.00 0.00 0.00 0.00 0.00 0.00 0.00 0.00 0.00 0.00 0.00 0.00 0.00 0.00 0.01 0.01 0.00 0.00 0.00 0.00 0.00 0.00
0.00 0.00 0.00 -0.00 -0.00 0.02 0.01 0.01 0.02 0.00 0.00 0.01 0.00 -0.00 -0.00 0.00 0.00 0.00 -0.00 0.00 0.00 0.00 0.00 0.00 0.00 0.00 0.00 0.00 0.00 -0.00 0.00 0.00 0.01 0.00 0.00 0.00 0.00 0.00 0.00 0.00 0.02 0.00 0.00 0.00 0.00 0.00 0.00 0.00 0.00 0.00 0.01 0.00 0.00 0.01 0.00 0.01 0.00 0.00 0.00 0.00 0.00 0.00 0.00
0.00 0.00 0.00 0.05 0.00 0.00 0.01 0.00 0.01 0.00 0.00 0.00 0.00 -0.00 0.00 0.00 0.00 -0.00 0.00 0.00 0.00 0.00 0.01 0.00 0.00 0.00 0.00 -0.00 0.00 0.01 0.04 0.03 0.01 0.02 0.02 0.01 0.00 0.00 0.00 0.00 0.03 0.02 0.00 0.00 0.00 0.00 0.00 0.00 0.00 0.00 0.01 0.01 0.00 0.01 0.01 0.00 0.00 0.00 0.00 -0.00 0.00 0.00 0.00
0.01 0.00 0.00 0.00 0.03 0.00 0.00 0.01 0.00 0.00 -0.00 0.01 0.00 0.01 0.00 0.00 0.00 -0.00 0.00 0.11 0.10 0.05 0.02 0.00 0.00 0.01 0.00 0.06 0.02 0.05 0.04 0.06 0.23 0.20 0.13 0.13 0.22 0.23 0.18 0.06 0.11 0.08 0.03 0.00 0.01 0.00 0.01 0.00 0.00 0.00 0.00 0.03 0.01 0.01 0.01 0.01 0.01 0.00 0.00 0.00 0.00 0.00 0.00
0.00 0.04 0.00 0.00 0.00 0.02 0.00 0.00 0.00 0.01 0.00 0.00 0.00 0.00 0.00 0.00 0.00 0.00 0.00 0.00 0.06 0.35 0.41 0.11 0.07 0.15 0.28 0.22 0.17 0.03 0.01 0.28 0.19 0.03 0.07 0.17 0.27 0.29 0.28 0.25 0.09 0.12 0.23 0.07 0.04 0.03 0.00 0.00 0.03 0.01 0.01 0.00 0.00 0.02 0.03 0.07 0.01 -0.00 0.00 -0.00 0.00 0.00 0.00
0.03 0.08 0.09 0.01 0.01 0.01 0.03 0.00 0.00 0.00 0.01 0.00 0.00 0.00 0.00 0.01 0.00 0.00 0.00 0.00 0.08 0.21 0.16 0.33 0.21 0.14 0.24 0.35 0.43 0.38 0.47 0.42 0.32 0.21 0.18 0.27 0.31 0.41 0.49 0.61 0.47 0.37 0.33 0.23 0.26 0.33 0.23 0.17 0.12 0.15 0.14 0.05 0.00 0.00 0.00 0.00 0.00 0.00 0.00 -0.00 0.00 0.00 0.00
0.34 0.09 0.11 0.04 0.00 0.00 0.00 -0.00 0.00 0.00 0.00 0.01 0.00 0.00 0.00 0.00 0.00 0.00 0.00 0.00 0.00 0.10 0.01 0.01 0.09 0.01 0.02 0.15 0.26 0.38 0.08 0.16 0.16 0.15 0.04 0.13 0.16 0.15 0.12 0.31 0.17 0.01 0.01 0.04 0.03 0.01 0.04 0.17 0.18 0.17 0.09 0.00 0.00 0.00 0.00 0.00 0.00 -0.00 0.00 0.00 0.00 0.00 0.00
0.31 0.30 0.21 0.03 0.00 0.00 0.00 0.00 0.00 0.00 0.00 0.00 0.00 0.00 0.00 -0.00 0.00 0.03 0.00 0.00 0.00 0.02 0.13 0.40 0.49 0.40 0.48 0.44 0.33 0.50 0.29 0.49 0.53 0.28 0.30 0.21 0.23 0.16 0.13 0.12 0.10 0.04 0.37 0.24 0.16 0.19 0.20 0.07 0.04 0.01 0.00 -0.00 0.00 0.00 0.00 0.00 0.00 0.00 0.00 0.00 0.00 0.00 0.00
0.14 0.21 0.32 0.04 0.00 0.00 0.00 -0.00 0.00 0.00 0.00 0.00 -0.00 0.00 0.00 0.00 0.00 0.00 0.00 0.00 0.09 0.08 0.06 0.00 0.05 0.08 0.06 0.14 0.08 0.14 0.36 0.23 0.26 0.25 0.13 0.06 0.06 0.06 0.01 0.02 0.08 0.06 0.01 0.00 0.00 0.00 0.00 0.00 0.00 0.00 0.00 0.00 0.00 0.00 0.00 -0.00 0.00 -0.00 -0.00 -0.00 -0.00 -0.00 0.00
0.30 0.22 0.19 0.07 0.00 0.00 0.00 0.00 0.00 0.00 0.00 0.00 0.00 0.00 0.00 0.00 0.00 0.00 0.00 0.02 0.01 0.00 0.02 0.01 0.00 0.01 0.01 0.01 0.02 0.04 0.03 0.04 0.10 0.16 0.01 0.00 0.00 0.00 0.00 0.00 0.00 0.00 0.00 0.00 0.00 0.00 0.00 0.00 0.00 0.00 0.00 0.00 0.00 0.00 0.00 -0.00 0.00 0.00 0.00 0.00 -0.00 0.00 0.00
0.24 0.04 0.03 0.02 0.00 -0.00 0.00 0.00 0.00 0.00 0.00 -0.00 0.00 0.00 0.00 -0.00 0.00 -0.00 0.00 0.00 0.01 0.02 0.00 0.00 0.00 0.00 0.01 0.01 0.01 0.00 0.01 0.03 0.01 0.00 0.00 0.00 0.00 0.00 -0.00 0.00 0.00 0.00 0.00 0.00 0.00 0.00 0.00 0.00 0.00 0.00 0.00 0.00 0.00 0.00 0.00 0.00 -0.00 -0.00 -0.00 0.00 -0.00 0.00 0.00
MSLP
996.40 997.20 996.68 997.32 997.00 1004.20 999.88 1000.32 1003.00 1001.12 998.56 1000.60 1003.60 1003.44 1002.04 1002.00 1004.28 1005.60 1001.56 1002.28 1000.40 997.32 996.52 996.16 996.20 996.64 996.84 996.68 996.84 996.92 997.20 997.48 997.80 998.32 998.24 998.40 999.36 999.92 1000.40 1000.84 1001.16 1001.20 1001.16 1001.24 1001.40 1001.84 1002.28 1002.56 1003.04 1003.48 1003.92 1004.32 1004.76 1005.20 1005.64 1006.20 1006.56 1006.88 1007.20 1007.44 1007.80 1008.08 1008.48
996.08 995.08 995.88 996.52 996.56 996.72 998.64 1001.60 999.44 997.40 996.76 997.96 1001.80 1006.36 1005.12 1005.32 1006.84 1005.16 1002.52 1003.88 1002.24 1002.04 1004.16 997.32 997.40 997.60 997.36 997.36 997.08 996.60 996.52 996.92 997.72 997.44 997.32 997.84 998.88 999.12 999.12 999.36 999.64 1000.08 1000.32 1000.48 1000.80 1001.12 1001.32 1001.68 1002.20 1002.84 1003.52 1003.88 1004.32 1004.64 1005.08 1005.76 1006.20 1006.68 1006.88 1007.16 1007.44 1007.72 1008.16
995.80 995.00 996.24 997.84 996.28 995.60 997.76 998.04 994.64 1000.16 1003.40 1004.24 1001.08 1004.08 1007.96 1006.80 1007.08 1006.64 1003.44 1001.80 1002.28 1001.64 1001.64 998.28 997.92 998.00 997.56 997.24 996.80 996.76 996.76 996.84 997.04 996.72 996.48 997.08 997.56 998.20 998.80 998.96 999.28 999.60 999.88 1000.16 1000.32 1000.48 1000.48 1000.96 1001.60 1002.24 1002.88 1003.44 1003.92 1004.32 1004.60 1005.00 1005.60 1005.88 1006.32 1006.60 1006.92 1007.20 1007.48
995.16 996.04 997.28 1001.32 999.12 996.36 995.76 995.84 996.88 995.60 998.72 1001.00 1003.88 1002.60 1002.64 1002.96 1006.12 1007.20 1005.40 1003.16 1004.24 999.44 998.88 997.44 997.28 996.84 996.52 996.20 996.52 996.60 996.08 995.80 995.80 995.44 996.08 996.64 997.48 997.80 998.20 998.36 998.56 998.80 998.88 999.12 999.56 999.96 1000.40 1000.64 1001.28 1001.80 1002.40 1002.92 1003.52 1003.84 1004.28 1004.64 1005.00 1005.40 1005.88 1006.28 1006.56 1006.96 1007.08
995.24 999.20 997.28 998.92 998.36 1000.00 999.80 999.64 999.64 998.04 998.04 996.32 997.92 999.24 1001.12 1003.40 1005.36 1005.56 1005.32 1005.64 1002.16 998.48 995.76 996.00 995.84 995.44 995.00 994.96 996.08 996.00 995.52 995.28 994.84 994.56 995.44 996.04 996.40 997.04 997.36 997.48 997.80 998.28 998.52 998.76 999.08 999.36 999.84 1000.36 1000.96 1001.56 1002.04 1002.52 1002.92 1003.24 1003.80 1004.16 1004.80 1005.16 1005.60 1005.84 1006.08 1006.44 1006.60
997.84 996.92 995.48 996.24 996.56 996.76 998.08 998.88 999.36 998.36 999.20 1000.88 1003.52 1003.84 998.84 1000.00 1002.84 1004.40 1005.16 1005.44 1000.76 996.40 993.72 994.32 994.48 993.88 994.12 994.72 995.40 995.52 995.04 994.80 994.60 994.44 994.20 995.72 996.32 996.28 996.28 996.40 996.48 997.04 997.64 998.20 998.60 999.00 999.60 1000.20 1000.60 1001.16 1001.40 1001.96 1002.48 1002.84 1003.12 1003.60 1004.08 1004.56 1004.96 1005.24 1005.48 1005.84 1006.12
996.44 995.76 994.12 993.96 994.40 994.68 995.44 996.48 998.00 996.64 996.92 997.56 1001.04 1005.12 1002.28 1000.12 999.52 999.56 1001.04 1003.56 1001.04 994.96 993.24 993.40 993.52 993.44 993.00 993.36 993.92 994.72 994.32 994.00 994.08 993.72 993.48 994.12 995.12 995.48 995.20 995.16 995.52 996.04 996.60 997.08 997.76 998.52 999.24 999.76 1000.16 1000.72 1001.20 1001.44 1001.80 1002.28 1002.64 1003.00 1003.48 1003.92 1003.96 1004.32 1004.64 1005.20 1005.68
994.44 993.24 993.08 993.04 993.76 994.76 996.00 995.56 995.24 996.32 997.64 996.60 997.44 998.60 998.56 1000.28 999.92 1001.04 1001.32 1003.40 1000.56 994.92 993.08 992.88 992.72 992.76 992.48 992.36 992.96 993.68 993.32 993.12 993.00 993.20 993.24 994.08 994.40 994.32 994.16 994.44 994.88 995.68 996.28 996.76 997.48 998.36 998.96 999.44 999.80 1000.12 1000.44 1000.80 1001.12 1001.52 1001.92 1002.36 1002.96 1003.24 1003.36 1003.60 1004.04 1004.68 1005.28
999.52 997.36 995.00 995.20 993.84 994.84 996.36 996.48 995.40 995.12 995.32 995.72 995.60 995.84 996.04 1000.16 999.04 998.40 1001.00 1004.64 1001.20 995.64 993.24 992.96 992.84 993.04 993.32 992.72 992.20 992.52 993.48 992.80 992.60 992.84 993.44 994.32 994.64 994.72 994.88 995.20 995.72 996.32 996.88 997.44 997.60 997.80 998.40 998.76 999.04 999.52 1000.12 1000.48 1000.64 1001.00 1001.24 1001.76 1002.16 1002.32 1002.64 1002.84 1003.44 1004.08 1004.60
1003.92 1003.76 1001.72 1000.00 999.04 997.32 996.16 995.88 995.52 995.00 995.80 996.44 997.72 999.76 998.84 1001.04 999.08 999.00 1000.64 1000.72 997.08 994.64 993.76 993.96 993.72 993.72 993.72 992.52 992.16 992.08 992.36 992.88 992.92 993.48 994.20 994.48 995.08 995.40 995.56 995.80 996.20 996.72 996.80 996.84 997.00 997.40 997.88 998.36 998.64 999.08 999.48 999.96 1000.28 1000.48 1000.64 1000.84 1001.44 1001.68 1002.00 1002.24 1002.80 1003.48 1004.00
999.32 998.48 996.60 994.16 994.80 996.08 997.60 996.40 996.08 995.44 994.64 994.68 995.68 997.12 999.20 1000.32 998.72 999.60 998.76 998.84 997.64 996.48 994.96 995.00 994.36 994.08 994.32 993.84 993.04 992.96 992.84 992.44 993.12 994.20 994.40 994.80 995.08 995.16 995.36 995.64 996.00 996.40 996.96 997.16 997.04 997.04 997.20 997.60 998.00 998.52 999.00 999.48 999.80 1000.04 1000.28 1000.32 1000.56 1000.96 1001.36 1001.76 1002.36 1003.00 1003.40
996.08 995.08 995.60 993.88 994.04 996.16 995.68 996.04 996.16 995.60 995.32 995.08 996.04 997.48 998.48 996.44 998.68 1000.64 997.52 997.04 998.64 997.92 995.68 994.64 994.60 993.84 994.04 993.92 993.60 993.00 992.96 993.16 992.84 993.52 994.32 994.64 995.08 995.00 995.28 995.64 996.16 996.76 997.00 997.00 996.96 996.96 997.12 997.40 997.64 998.00 998.40 998.84 999.28 999.56 999.84 999.84 1000.00 1000.40 1000.68 1001.32 1001.96 1002.48 1002.84
995.32 994.64 994.36 993.96 993.68 994.08 994.68 994.92 995.12 995.68 995.56 995.44 996.36 996.20 995.44 995.92 998.32 999.76 996.96 996.56 998.00 997.00 995.48 994.28 993.92 993.72 994.08 994.00 994.08 993.44 992.72 992.80 992.88 993.04 993.84 994.44 994.64 994.72 995.00 995.48 995.80 996.28 996.68 996.84 996.80 996.72 996.72 996.96 997.52 997.92 998.28 998.64 998.92 999.28 999.32 999.44 999.40 999.68 999.96 1000.76 1001.44 1001.88 1002.28
995.28 995.00 994.68 993.92 994.24 994.04 994.24 994.40 994.12 994.12 994.52 995.32 995.16 994.92 994.32 994.80 996.08 995.72 995.72 996.40 996.56 995.28 994.92 993.80 993.08 992.72 992.92 992.92 992.76 992.96 993.12 992.88 992.68 992.88 993.52 993.60 993.92 994.20 994.72 995.00 995.32 995.52 995.76 996.08 996.28 996.36 996.72 997.00 997.28 997.56 998.00 998.32 998.52 998.80 998.96 999.00 999.12 999.00 999.52 1000.28 1000.84 1001.28 1001.80
995.44 994.48 994.40 994.32 994.48 994.52 994.80 993.64 993.56 993.36 993.64 994.04 994.12 994.52 994.04 993.96 994.80 994.92 995.48 996.12 996.20 993.40 992.84 993.04 992.04 991.80 992.32 992.76 993.36 993.32 993.24 993.08 992.92 993.00 993.24 993.32 993.20 993.16 994.00 994.80 994.84 995.00 994.96 995.12 995.52 995.88 996.16 996.36 996.68 996.92 997.20 997.48 997.80 998.08 998.40 998.60 998.76 998.52 998.92 999.80 1000.36 1000.84 1001.32
996.68 994.28 994.08 994.48 994.56 994.72 995.04 994.92 994.16 994.52 994.24 994.88 994.20 994.80 993.96 995.04 996.00 995.72 995.84 996.52 996.00 993.44 992.72 992.72 992.56 992.48 992.96 993.68 993.76 993.72 993.44 992.96 992.96 993.08 992.96 993.16 993.32 993.36 993.96 994.20 994.40 994.64 994.68 994.80 995.20 995.64 995.72 995.84 996.12 996.40 996.80 997.08 997.48 997.80 997.76 997.92 997.96 997.92 998.40 999.12 999.76 1000.24 1000.52
997.24 994.88 993.92 994.28 994.72 996.04 997.40 996.24 994.20 992.92 993.28 993.40 992.68 992.28 992.56 993.28 993.84 995.56 996.64 996.00 993.56 992.92 992.48 993.40 992.92 992.40 992.64 993.36 993.72 993.60 993.16 993.00 992.88 992.96 993.04 993.04 992.96 993.20 992.92 993.52 994.12 994.12 994.08 994.16 994.44 994.56 994.76 995.16 995.52 995.56 995.80 996.40 997.00 997.08 997.28 997.24 997.32 997.64 998.16 998.56 999.20 999.80 1000.16
997.52 995.60 994.96 994.48 997.64 1000.60 998.08 992.60 992.04 992.72 993.44 993.16 994.44 993.20 992.08 992.00 992.52 993.60 993.16 993.36 992.32 992.36 992.64 993.12 993.12 992.68 992.40 992.24 991.88 991.60 992.32 992.96 993.04 992.52 992.40 992.48 992.32 992.28 992.60 992.72 993.16 993.40 993.44 993.40 993.56 993.80 994.04 994.24 994.28 994.44 994.80 995.48 995.84 996.08 996.48 996.92 997.32 997.48 997.84 998.24 998.72 999.28 999.68
997.00 996.24 996.52 998.68 1000.36 998.44 993.76 992.00 991.44 991.48 991.84 992.04 992.28 992.08 991.88 991.60 990.96 991.40 992.32 992.04 992.16 992.08 992.00 992.08 991.80 991.56 991.32 990.96 991.20 991.12 990.92 991.44 991.96 992.60 992.40 992.20 992.04 991.88 991.72 992.28 992.32 992.92 993.20 993.28 993.40 993.72 993.76 993.68 993.76 994.16 994.76 994.96 995.40 995.92 996.32 996.84 996.92 997.28 997.48 997.92 998.44 998.88 999.32
995.96 997.36 997.80 1000.84 999.20 994.56 993.12 992.64 991.92 991.08 991.36 991.60 992.56 993.28 991.52 990.92 991.52 991.44 991.84 992.08 991.80 991.32 991.40 991.24 990.88 991.04 990.88 990.60 990.24 990.64 990.72 990.72 991.20 991.64 991.96 991.72 991.48 991.56 991.28 991.72 991.88 992.48 992.64 992.80 992.96 993.28 992.88 993.08 993.36 993.56 993.96 994.08 994.72 995.28 995.48 996.16 996.68 996.96 997.28 997.76 998.16 998.52 999.04
998.16 997.68 997.84 997.68 995.28 995.88 995.12 995.08 993.80 993.08 994.44 994.28 994.88 996.92 994.56 992.00 991.52 991.52 993.40 993.60 992.48 992.36 992.00 990.64 990.56 990.72 991.04 992.00 991.60 989.96 990.08 990.32 990.04 990.16 990.12 989.96 990.16 990.28 990.44 990.52 991.24 991.24 991.32 991.76 991.88 992.32 992.64 992.80 992.96 993.20 993.24 993.64 994.24 994.76 995.32 995.72 996.28 996.76 997.12 997.76 998.08 998.40 999.00
995.92 997.84 999.04 998.72 998.80 999.84 997.20 994.04 992.08 991.36 992.16 992.44 993.32 995.56 996.32 993.24 992.76 992.40 993.04 993.28 993.16 993.48 993.12 992.96 991.40 990.52 992.60 994.04 993.00 990.84 989.60 989.20 989.52 989.32 989.04 988.68 988.96 989.32 989.60 989.52 990.00 990.56 990.76 990.96 991.12 991.64 992.28 992.48 992.24 992.32 992.64 993.28 994.04 994.64 995.04 995.32 996.00 996.60 997.12 997.96 997.96 998.36 998.88
996.68 997.92 999.04 998.80 999.52 997.64 994.92 993.92 992.28 991.68 991.48 992.20 993.16 995.52 997.80 993.48 992.36 992.36 992.92 993.24 993.12 993.48 993.40 993.44 993.44 994.08 994.92 994.12 992.36 990.04 989.36 989.24 988.96 989.20 989.00 988.60 988.44 988.72 989.16 989.44 989.84 990.16 990.24 990.40 990.80 991.20 991.60 992.20 991.92 991.92 992.36 993.00 993.88 994.64 994.76 995.04 995.60 996.36 997.04 997.64 997.84 998.32 998.72
997.52 997.80 998.68 998.64 996.68 997.60 995.60 993.52 992.52 991.68 991.92 992.20 994.72 1000.44 998.64 995.16 993.16 993.32 993.28 993.92 993.76 993.80 993.80 993.68 994.04 995.52 997.24 995.04 991.60 989.08 988.72 988.60 988.16 988.32 988.88 988.60 988.40 988.68 988.84 988.76 988.60 989.04 989.48 990.16 990.80 991.36 991.72 991.68 991.32 991.52 992.00 992.72 993.64 994.32 994.60 994.64 995.32 996.00 996.56 997.04 997.24 997.68 998.44
998.44 999.36 999.16 997.68 996.32 994.80 993.96 993.12 991.84 992.36 992.16 994.36 999.04 1000.84 996.60 994.64 993.76 993.52 993.44 993.68 993.80 993.76 994.20 994.00 995.52 994.20 993.64 993.00 991.76 989.92 988.44 988.40 988.04 987.84 988.24 988.60 988.00 988.36 988.64 988.84 988.48 989.32 989.52 990.04 990.76 990.96 991.04 991.04 991.00 991.20 991.76 992.68 993.68 994.16 994.52 994.92 995.24 995.36 995.92 996.68 997.08 997.76 998.52
998.76 998.40 999.20 998.56 996.64 994.36 993.80 992.80 992.32 992.96 995.00 999.48 999.28 995.44 993.92 993.92 994.04 993.40 993.52 993.88 993.84 994.24 994.68 995.12 995.00 993.88 992.28 991.52 990.56 990.16 989.68 988.64 989.08 989.08 989.52 989.72 989.64 988.96 988.64 988.80 988.96 989.48 989.44 990.08 990.48 990.56 990.64 990.80 990.88 991.12 991.72 992.80 993.52 994.08 994.60 995.12 995.16 995.00 995.76 996.56 997.20 997.76 998.36
997.04 997.48 999.24 999.60 1001.16 995.16 992.92 994.52 993.80 993.20 997.32 996.84 995.08 993.92 993.68 993.60 993.72 994.08 994.00 994.84 995.88 995.60 995.76 995.08 994.84 994.16 993.60 992.56 991.44 990.52 990.24 989.16 989.04 989.40 989.96 990.36 990.60 990.84 990.76 990.28 989.44 989.56 990.12 990.44 990.52 990.56 990.40 990.48 990.60 991.04 991.68 992.92 993.64 994.12 994.84 995.08 994.84 995.20 995.84 996.40 997.16 997.92 998.56
998.36 998.52 999.20 998.68 995.40 993.48 992.92 994.56 997.28 994.88 994.12 994.12 993.88 994.00 994.72 994.08 994.24 994.88 995.20 996.12 995.92 995.60 995.72 995.64 995.32 994.92 994.52 993.84 992.96 991.48 990.08 989.72 989.00 989.44 989.60 989.92 990.24 990.60 990.44 990.40 990.64 990.32 990.52 990.36 990.48 990.36 990.24 990.40 990.64 991.08 991.88 993.12 993.72 994.52 995.12 994.64 994.88 995.32 995.92 996.60 997.24 998.12 998.84
996.28 997.00 995.80 994.96 993.52 992.60 992.32 993.40 994.24 993.80 993.88 993.52 993.80 994.44 995.44 995.88 996.12 995.72 996.32 996.76 996.12 995.76 995.40 995.36 995.44 995.40 995.44 995.08 993.92 993.52 992.96 992.24 992.16 991.80 991.36 991.36 991.56 991.60 991.80 991.32 991.28 991.40 991.04 990.92 990.72 990.68 990.60 990.76 990.96 991.44 992.00 993.04 993.96 995.00 995.08 994.88 995.44 995.80 996.28 997.00 997.76 998.56 999.16
994.80 994.32 994.28 993.96 993.80 993.44 993.36 993.40 993.44 993.48 994.04 994.12 994.28 995.56 996.48 996.80 996.72 996.56 996.92 996.76 996.56 996.24 995.48 995.40 995.64 995.96 995.92 995.60 994.84 994.32 994.08 993.72 993.20 992.84 992.52 992.60 992.64 992.44 992.64 993.00 994.12 993.24 991.52 990.72 990.72 991.36 991.68 991.36 991.52 991.76 992.44 993.00 994.28 994.92 994.96 995.48 996.00 996.60 997.16 997.84 998.56 999.12 999.60
996.28 999.12 995.56 994.56 995.12 994.68 994.20 994.52 994.52 994.08 994.32 994.96 995.12 996.04 996.68 996.92 996.80 996.76 996.84 996.88 996.92 996.88 996.60 996.88 996.84 996.56 996.60 996.64 996.12 995.44 995.00 994.44 994.24 993.92 993.88 993.92 994.24 994.56 995.48 995.60 994.12 993.48 993.32 992.60 992.84 992.48 992.44 992.32 992.40 992.44 992.76 993.24 993.76 994.40 995.20 996.08 996.52 997.04 997.72 998.36 999.00 999.36 999.88
999.28 998.56 997.12 996.04 995.76 996.04 995.92 995.28 995.00 995.60 995.68 995.44 995.68 995.92 996.00 996.24 996.32 996.52 996.76 996.76 997.16 996.76 997.12 997.60 997.76 998.00 997.88 997.60 997.20 996.68 996.36 996.00 994.92 994.40 994.68 994.72 994.72 995.60 996.76 996.48 995.56 994.88 994.36 994.08 994.44 995.04 995.04 994.08 993.88 994.04 994.00 993.84 994.00 994.60 995.28 995.84 996.60 997.36 998.08 998.52 999.00 999.44 999.84
1000.44 997.88 996.60 995.92 996.08 996.76 997.08 997.08 996.84 996.04 995.60 996.04 996.28 996.32 996.48 996.60 997.04 997.28 997.20 997.08 997.40 997.28 997.68 997.56 997.80 998.28 998.48 998.04 997.76 997.68 997.68 997.52 996.72 995.72 995.68 995.76 995.68 996.08 996.76 996.64 995.56 994.36 994.20 994.20 994.24 994.44 994.96 994.64 994.28 994.60 994.52 994.36 994.36 994.80 995.48 996.16 996.84 997.64 998.44 998.92 999.32 999.80 1000.20
1000.64 1000.00 998.84 996.40 997.88 999.56 998.84 998.16 997.72 997.64 997.32 997.12 997.24 997.24 997.40 997.48 997.56 997.56 997.72 997.88 997.68 997.60 997.76 997.96 997.96 998.32 998.32 998.08 998.08 998.56 998.72 998.80 998.60 997.88 997.72 997.44 997.32 996.92 996.44 996.08 995.28 994.96 995.40 995.40 995.16 995.52 995.64 994.68 994.36 994.40 994.60 994.76 994.92 995.28 995.88 996.52 997.12 997.96 998.60 999.08 999.52 1000.08 1000.44
1000.60 999.48 997.88 997.08 996.72 998.08 998.60 998.60 998.32 998.00 997.92 997.92 998.12 998.32 998.32 998.36 998.32 998.36 998.44 998.64 998.68 998.56 998.48 998.24 998.32 998.16 997.84 997.60 997.84 998.92 999.52 999.28 999.08 998.12 997.48 997.24 997.04 996.52 995.56 995.56 995.44 995.08 995.20 995.36 995.36 995.52 995.52 994.84 994.76 994.92 995.12 995.24 995.56 995.96 996.36 996.80 997.36 997.96 998.44 999.04 999.44 999.96 1000.56
999.72 998.56 998.32 997.48 997.44 998.60 999.00 998.76 998.72 998.60 998.36 998.36 998.56 998.56 998.64 998.76 998.80 998.80 998.96 999.12 999.36 999.44 999.24 998.88 998.56 998.60 998.24 997.72 997.92 998.80 999.00 998.84 998.60 998.80 997.28 996.12 995.72 995.44 995.08 994.96 994.92 994.88 995.08 995.20 995.36 995.56 995.44 995.32 995.40 995.36 995.60 995.80 996.08 996.44 996.76 997.16 997.56 998.00 998.40 998.88 999.44 999.88 1000.28
999.48 998.08 998.20 997.76 997.76 998.44 998.80 998.96 998.96 998.92 998.84 998.88 999.28 999.48 999.44 999.32 999.16 998.96 999.16 999.40 999.44 999.68 999.84 999.72 999.28 998.92 999.00 998.96 998.92 999.00 999.20 999.44 999.00 998.16 997.40 996.44 995.92 995.68 995.52 995.24 995.20 995.44 995.64 995.76 995.76 995.68 995.76 995.76 995.84 995.92 996.20 996.40 996.32 996.60 997.04 997.44 997.80 998.32 998.72 999.08 999.52 999.92 1000.28
Thickness
5868 5860 5863 5870 5852 5836 5843 5842 5826 5837 5861 5850 5822 5816 5835 5836 5810 5814 5834 5841 5860 5877 5885 5903 5904 5896 5899 5897 5897 5901 5896 5897 5895 5889 5891 5891 5885 5884 5883 5881 5879 5879 5880 5882 5881 5877 5873 5869 5865 5860 5858 5855 5853 5851 5848 5843 5840 5838 5836 5833 5831 5828 5826
5860 5873 5864 5864 5866 5857 5843 5832 5840 5859 5864 5857 5837 5808 5810 5817 5797 5810 5836 5836 5844 5849 5851 5883 5897 5887 5890 5892 5893 5900 5900 5897 5894 5895 5897 5893 5890 5891 5890 5889 5886 5883 5883 5883 5882 5879 5876 5874 5870 5864 5860 5857 5855 5853 5850 5845 5841 5838 5835 5834 5832 5830 5827
5853 5873 5854 5840 5858 5869 5858 5855 5869 5861 5830 5824 5827 5803 5796 5804 5791 5799 5826 5834 5838 5842 5851 5878 5888 5883 5889 5893 5893 5897 5900 5899 5897 5901 5902 5895 5893 5893 5892 5892 5888 5887 5887 5885 5883 5881 5880 5878 5873 5868 5863 5859 5856 5854 5852 5848 5844 5841 5838 5835 5833 5831 5829
5853 5853 5838 5822 5835 5855 5859 5860 5866 5860 5839 5828 5825 5817 5814 5809 5792 5791 5809 5820 5831 5852 5872 5884 5887 5891 5897 5898 5897 5896 5901 5906 5907 5911 5907 5896 5892 5892 5892 5892 5891 5891 5891 5889 5886 5883 5881 5880 5875 5870 5865 5860 5858 5856 5854 5851 5846 5843 5839 5836 5834 5832 5831
5844 5828 5829 5830 5832 5837 5835 5831 5835 5844 5849 5846 5837 5834 5835 5821 5798 5795 5801 5804 5829 5869 5892 5894 5897 5904 5905 5904 5901 5898 5903 5910 5914 5918 5913 5899 5894 5894 5896 5898 5896 5895 5893 5891 5888 5883 5881 5878 5874 5871 5867 5863 5861 5858 5856 5852 5848 5844 5841 5838 5836 5834 5834
5829 5823 5841 5851 5848 5847 5837 5830 5833 5838 5844 5839 5816 5808 5830 5837 5818 5811 5806 5798 5830 5884 5905 5904 5908 5911 5911 5908 5902 5900 5905 5910 5913 5920 5920 5907 5897 5897 5903 5907 5905 5901 5898 5894 5890 5884 5879 5877 5874 5872 5869 5866 5863 5860 5859 5856 5851 5848 5845 5842 5840 5838 5836
5836 5842 5856 5857 5854 5859 5853 5843 5846 5846 5846 5840 5811 5793 5815 5833 5828 5831 5823 5803 5832 5890 5912 5909 5912 5916 5917 5915 5908 5904 5909 5915 5915 5919 5925 5918 5906 5906 5913 5915 5912 5908 5904 5899 5895 5888 5881 5877 5875 5872 5869 5869 5867 5864 5861 5858 5854 5852 5850 5848 5846 5842 5838
5841 5854 5862 5861 5857 5854 5843 5842 5851 5847 5845 5849 5840 5832 5834 5829 5827 5838 5823 5797 5828 5886 5910 5912 5914 5916 5918 5921 5918 5912 5913 5921 5921 5920 5922 5917 5912 5915 5918 5917 5913 5906 5902 5899 5895 5890 5885 5880 5877 5873 5871 5871 5870 5867 5865 5861 5858 5856 5855 5854 5850 5845 5841
5796 5813 5826 5832 5836 5836 5829 5834 5847 5848 5849 5850 5847 5851 5847 5827 5827 5840 5819 5798 5830 5881 5902 5906 5908 5908 5911 5919 5924 5919 5915 5920 5922 5920 5916 5909 5907 5910 5910 5909 5905 5899 5895 5894 5893 5892 5887 5882 5878 5875 5872 5871 5871 5870 5868 5865 5862 5860 5860 5858 5853 5849 5844
5762 5772 5791 5806 5815 5823 5827 5832 5842 5846 5848 5844 5836 5835 5828 5814 5823 5834 5819 5816 5849 5882 5892 5893 5897 5898 5900 5910 5920 5921 5919 5920 5919 5913 5908 5905 5903 5901 5901 5900 5897 5893 5892 5893 5894 5893 5889 5885 5881 5876 5873 5872 5872 5871 5870 5869 5866 5864 5863 5861 5857 5851 5847
5784 5787 5807 5828 5826 5819 5820 5825 5834 5841 5845 5847 5839 5824 5814 5818 5825 5822 5823 5835 5848 5865 5879 5884 5890 5893 5893 5899 5909 5914 5917 5918 5914 5905 5900 5901 5899 5896 5897 5896 5893 5891 5889 5889 5891 5891 5890 5888 5884 5879 5875 5874 5872 5872 5871 5870 5870 5868 5867 5864 5859 5854 5851
5805 5810 5822 5838 5835 5822 5821 5825 5828 5832 5839 5843 5836 5822 5823 5832 5820 5808 5830 5845 5835 5844 5870 5880 5884 5889 5888 5889 5895 5903 5908 5912 5912 5908 5901 5896 5894 5894 5895 5892 5890 5888 5884 5885 5889 5889 5890 5888 5884 5880 5877 5875 5874 5873 5872 5872 5871 5871 5870 5866 5860 5856 5854
5806 5816 5821 5832 5836 5829 5829 5830 5829 5830 5832 5833 5830 5829 5838 5839 5820 5814 5838 5843 5832 5844 5865 5875 5884 5888 5885 5887 5890 5897 5905 5908 5910 5909 5902 5896 5894 5894 5890 5887 5887 5885 5882 5884 5885 5885 5887 5885 5881 5879 5875 5874 5875 5873 5872 5873 5873 5874 5873 5868 5862 5859 5857
5799 5810 5814 5823 5828 5828 5830 5832 5835 5837 5833 5831 5832 5835 5844 5845 5833 5835 5845 5839 5838 5855 5867 5876 5889 5891 5889 5891 5892 5893 5899 5902 5904 5904 5899 5898 5898 5896 5890 5885 5886 5887 5886 5886 5885 5884 5885 5882 5880 5878 5875 5875 5875 5874 5875 5874 5873 5875 5874 5869 5865 5863 5859
5790 5804 5810 5813 5815 5818 5823 5828 5834 5837 5834 5833 5832 5832 5840 5840 5832 5837 5843 5836 5841 5862 5872 5878 5888 5891 5888 5886 5885 5886 5890 5894 5899 5899 5896 5897 5899 5897 5891 5887 5887 5889 5888 5887 5886 5884 5883 5883 5883 5880 5878 5878 5877 5876 5876 5875 5875 5876 5874 5871 5868 5865 5862
5775 5800 5806 5805 5810 5811 5808 5813 5822 5827 5827 5829 5832 5835 5837 5833 5828 5830 5831 5828 5837 5859 5870 5872 5879 5885 5881 5875 5875 5880 5883 5888 5892 5893 5894 5894 5895 5894 5891 5889 5888 5887 5889 5889 5887 5885 5886 5886 5884 5882 5882 5880 5877 5876 5877 5877 5879 5878 5874 5873 5870 5867 5866
5763 5790 5801 5804 5801 5784 5779 5800 5819 5825 5828 5830 5836 5844 5845 5840 5835 5826 5821 5830 5847 5861 5866 5865 5870 5878 5877 5873 5875 5876 5878 5883 5886 5888 5891 5891 5893 5894 5892 5891 5889 5887 5891 5893 5890 5890 5891 5889 5887 5888 5887 5882 5879 5880 5880 5880 5880 5877 5874 5874 5871 5868 5866
5755 5775 5793 5791 5768 5751 5771 5812 5830 5829 5832 5832 5833 5841 5848 5849 5847 5841 5838 5847 5857 5859 5859 5860 5865 5874 5878 5880 5883 5884 5884 5883 5882 5884 5888 5889 5894 5897 5894 5893 5891 5890 5892 5894 5893 5894 5894 5893 5894 5893 5890 5887 5884 5883 5881 5878 5878 5876 5873 5873 5871 5868 5866
5757 5767 5771 5749 5735 5755 5795 5824 5832 5831 5835 5838 5835 5840 5850 5854 5854 5856 5855 5854 5857 5856 5857 5861 5865 5870 5877 5884 5887 5889 5889 5888 5885 5882 5883 5887 5893 5896 5896 5895 5892 5889 5891 5893 5893 5894 5895 5896 5896 5894 5891 5890 5887 5883 5880 5877 5876 5875 5873 5871 5870 5869 5866
5749 5749 5743 5729 5742 5780 5803 5808 5819 5826 5824 5823 5817 5815 5829 5845 5849 5849 5845 5842 5850 5855 5856 5862 5865 5866 5872 5876 5880 5883 5885 5887 5888 5885 5884 5889 5893 5894 5896 5895 5891 5888 5891 5894 5894 5894 5896 5898 5896 5894 5893 5893 5888 5885 5882 5877 5875 5874 5871 5868 5868 5867 5865
5740 5734 5736 5743 5753 5767 5776 5787 5806 5813 5807 5808 5801 5789 5804 5831 5839 5834 5827 5826 5835 5841 5844 5854 5864 5868 5863 5855 5861 5878 5884 5885 5888 5890 5893 5898 5898 5897 5900 5899 5894 5891 5894 5897 5897 5895 5895 5895 5895 5896 5897 5894 5889 5884 5882 5878 5874 5872 5868 5865 5864 5864 5861
5742 5732 5728 5734 5731 5735 5757 5783 5804 5812 5807 5808 5803 5782 5785 5814 5826 5821 5819 5821 5824 5826 5828 5838 5850 5856 5847 5835 5846 5871 5883 5887 5889 5889 5894 5902 5901 5899 5900 5900 5896 5892 5895 5898 5897 5896 5894 5893 5896 5898 5896 5893 5887 5881 5880 5878 5873 5870 5865 5860 5860 5860 5857
5732 5725 5717 5722 5725 5736 5762 5784 5800 5807 5804 5805 5798 5771 5770 5801 5818 5816 5816 5816 5816 5818 5820 5824 5827 5823 5815 5822 5848 5871 5880 5885 5890 5889 5891 5897 5899 5898 5899 5900 5897 5893 5895 5898 5896 5894 5892 5892 5896 5898 5894 5890 5884 5877 5877 5877 5872 5868 5862 5858 5859 5857 5853
5717 5716 5714 5726 5737 5746 5765 5784 5794 5797 5800 5799 5773 5742 5753 5790 5807 5807 5809 5807 5808 5814 5815 5815 5813 5803 5798 5814 5845 5870 5881 5886 5891 5891 5889 5889 5892 5894 5893 5898 5899 5893 5891 5894 5892 5888 5889 5891 5895 5896 5891 5886 5879 5874 5874 5874 5871 5868 5862 5859 5859 5856 5851
5708 5705 5704 5720 5738 5748 5762 5779 5789 5789 5787 5774 5746 5736 5762 5788 5794 5800 5805 5803 5804 5810 5809 5805 5806 5808 5814 5824 5840 5860 5875 5882 5882 5881 5878 5878 5882 5884 5883 5890 5893 5886 5884 5889 5887 5884 5887 5890 5891 5891 5888 5881 5874 5871 5869 5868 5868 5868 5862 5858 5857 5852 5848
5708 5709 5706 5707 5724 5749 5764 5771 5780 5779 5760 5742 5743 5762 5781 5784 5787 5797 5801 5797 5796 5798 5796 5794 5797 5808 5823 5834 5840 5850 5861 5868 5867 5864 5862 5862 5862 5865 5870 5877 5880 5875 5876 5881 5881 5879 5884 5885 5886 5887 5883 5874 5868 5866 5863 5861 5864 5864 5858 5853 5851 5848 5845
5705 5705 5702 5692 5706 5746 5765 5757 5759 5763 5748 5741 5757 5774 5779 5780 5786 5790 5788 5784 5783 5782 5784 5787 5792 5801 5810 5819 5830 5841 5850 5858 5858 5853 5852 5851 5848 5850 5854 5859 5863 5864 5866 5870 5871 5874 5878 5880 5881 5881 5875 5866 5862 5860 5856 5857 5859 5857 5853 5850 5848 5843 5839
5704 5694 5699 5707 5725 5756 5765 5746 5742 5751 5754 5759 5768 5768 5767 5773 5776 5774 5771 5770 5770 5775 5779 5780 5784 5790 5794 5801 5813 5824 5832 5840 5840 5837 5839 5843 5841 5842 5846 5848 5851 5853 5855 5859 5863 5865 5871 5873 5872 5872 5867 5860 5856 5852 5849 5852 5854 5851 5848 5846 5841 5836 5831
5712 5706 5714 5729 5742 5756 5759 5748 5745 5751 5755 5762 5765 5759 5755 5756 5757 5759 5759 5757 5761 5770 5774 5775 5777 5778 5780 5788 5797 5802 5807 5813 5814 5814 5821 5826 5825 5826 5829 5831 5833 5835 5840 5848 5851 5853 5857 5860 5861 5862 5861 5855 5848 5843 5843 5847 5847 5843 5841 5838 5832 5827 5823
5714 5715 5722 5733 5736 5742 5747 5745 5744 5747 5748 5753 5755 5749 5743 5742 5744 5747 5748 5749 5754 5761 5763 5767 5768 5766 5768 5776 5781 5786 5790 5794 5796 5800 5805 5808 5807 5805 5805 5809 5814 5819 5827 5835 5838 5838 5840 5845 5849 5852 5852 5847 5842 5838 5837 5837 5835 5832 5830 5826 5821 5817 5814
5690 5693 5706 5720 5721 5721 5729 5732 5734 5736 5738 5743 5746 5741 5737 5739 5739 5740 5742 5744 5747 5750 5752 5753 5752 5754 5757 5760 5763 5769 5775 5778 5784 5790 5791 5793 5792 5786 5781 5787 5795 5802 5807 5811 5814 5816 5820 5827 5833 5836 5837 5838 5837 5834 5830 5826 5824 5823 5820 5815 5812 5810 5807
5669 5678 5693 5707 5707 5706 5712 5717 5722 5726 5726 5730 5735 5735 5735 5737 5735 5735 5739 5740 5740 5742 5743 5741 5741 5742 5744 5745 5748 5753 5755 5759 5769 5777 5779 5781 5782 5777 5772 5775 5781 5786 5789 5795 5798 5797 5801 5808 5812 5815 5820 5826 5829 5828 5824 5820 5818 5815 5812 5808 5807 5805 5802
5656 5666 5681 5694 5695 5693 5696 5701 5707 5713 5716 5719 5723 5726 5729 5731 5729 5729 5731 5731 5732 5734 5733 5735 5736 5733 5731 5734 5737 5737 5736 5739 5748 5758 5761 5761 5765 5768 5767 5769 5775 5780 5783 5788 5792 5790 5791 5797 5803 5807 5812 5816 5820 5821 5819 5816 5813 5809 5803 5801 5801 5797 5794
5644 5656 5674 5689 5687 5677 5678 5687 5694 5699 5704 5708 5711 5715 5717 5717 5717 5719 5719 5719 5722 5724 5725 5728 5729 5726 5726 5730 5728 5723 5722 5722 5726 5736 5744 5744 5747 5755 5759 5760 5768 5774 5775 5777 5782 5782 5784 5791 5799 5804 5808 5811 5813 5814 5812 5809 5806 5802 5799 5796 5794 5790 5787
5643 5656 5671 5684 5684 5674 5674 5682 5688 5691 5695 5698 5699 5702 5704 5704 5706 5708 5708 5707 5708 5711 5715 5719 5721 5720 5724 5729 5725 5717 5715 5715 5717 5728 5740 5744 5745 5750 5755 5759 5764 5769 5771 5773 5776 5777 5781 5787 5795 5799 5803 5804 5805 5805 5804 5803 5800 5798 5795 5792 5789 5785 5782
5646 5658 5665 5673 5678 5675 5673 5677 5681 5684 5688 5689 5690 5693 5695 5696 5698 5699 5698 5697 5698 5699 5702 5708 5712 5714 5717 5721 5720 5715 5713 5715 5719 5726 5738 5747 5750 5753 5759 5764 5767 5769 5771 5772 5774 5776 5780 5784 5789 5793 5795 5797 5798 5798 5797 5795 5793 5792 5791 5787 5784 5781 5778
5648 5659 5666 5672 5675 5672 5669 5672 5675 5678 5682 5683 5683 5684 5685 5687 5691 5693 5692 5692 5692 5691 5692 5696 5701 5706 5707 5709 5711 5712 5712 5713 5717 5723 5734 5744 5751 5754 5759 5763 5766 5768 5769 5769 5771 5774 5776 5778 5782 5784 5786 5788 5790 5791 5790 5788 5787 5785 5783 5781 5778 5775 5772